{"data":{"norad_id":66153,"epoch":"2026-09-20T04:33:42.331392Z","epoch_age_seconds":127182,"freshness":"FRESH","line1":"1 66153U 25240H   26263.19007328  .00014689  00000+0  44499-3 0  9993","line2":"2 66153  53.1588 235.3886 0001856  79.5425 280.5786 15.34402330 51827","mean_motion":15.3440233,"eccentricity":0.0001856,"inclination_deg":53.1588,"raan_deg":235.3886,"arg_perigee_deg":79.5425,"mean_anomaly_deg":280.5786,"bstar":0.00044499,"rev_number":5182,"period_min":93.847615572899,"perigee_km":461.42665630159,"apogee_km":463.9659736281,"semimajor_km":6840.8333149648,"source":"CELESTRAK","updated_at":"2026-09-21T09:00:35.813587Z"}}